Date String (YYYY-MM-DD hh:mm:ss) UTC,Instrument flags,absolute air pressure of the measurement (hPa),sample flow rate (lpm),inlet stack bypass flow (lpm),air temperature of the measurement (°C),ambient temperature measured by the external sensor (°C),aerosol sample conditioner tube jacket temperature (°C),OPC LED temperature (°C),internal box temperature (°C),relative humidity of the measurement (%),span deviation,mass concentration of particles derived from Lorenz-Mie calculation of OPC scattering (μg/m³),mass concentration of particles derived from Lorenz-Mie calculation of OPC scattering (μg/m³),mass concentration of particles derived from Lorenz-Mie calculation of OPC scattering (μg/m³)
DateTimeUTC,F1_M11,P_M11,Q1_M11,Q2_M11,T1_M11,T2_M11,T3_M11,T4_M11,T5_M11,U1_M11,ZSPAN_M11,X2_M11,X0_M11,X1_M11
2024-01-11 00:00:00,SystemResetWarning,0813.0,5.00,000.00,018.9,018.0,000.0,027.3,020.0,8.9,0000.0,0000.78,0001.56,0000.47
2024-01-11 00:01:00,SystemResetWarning,0813.1,5.00,000.00,018.9,017.8,000.0,027.3,020.0,9.0,0000.0,0000.82,0001.63,0000.48
2024-01-11 00:02:00,SystemResetWarning,0813.1,5.00,000.00,018.9,017.6,000.0,027.3,020.0,9.0,0000.0,0000.84,0001.65,0000.48
2024-01-11 00:03:00,SystemResetWarning,0813.2,5.00,000.00,018.8,017.5,000.0,027.3,020.0,9.1,0000.0,0000.89,0002.03,0000.48
2024-01-11 00:04:00,SystemResetWarning,0813.1,5.01,000.00,018.8,017.3,000.0,027.3,020.0,9.1,0000.0,0000.93,0002.61,0000.49
2024-01-11 00:05:00,SystemResetWarning,0813.1,5.01,000.00,018.8,017.2,000.0,027.3,020.0,9.2,0000.0,0000.93,0002.58,0000.49
2024-01-11 00:06:00,SystemResetWarning,0813.2,5.00,000.00,018.8,017.1,000.0,027.3,020.0,9.2,0000.0,0000.90,0002.65,0000.49
2024-01-11 00:07:00,SystemResetWarning,0813.2,5.00,000.00,018.8,017.5,000.0,027.3,020.4,9.2,0000.0,0000.86,0003.95,0000.50
2024-01-11 00:08:00,SystemResetWarning,0813.2,5.00,000.00,019.0,018.4,000.0,027.3,020.8,9.2,0000.0,0000.86,0003.96,0000.51
2024-01-11 00:09:00,SystemResetWarning,0813.2,4.98,000.00,019.1,018.8,000.0,027.3,020.7,9.2,0000.0,0000.84,0003.93,0000.50
2024-01-11 00:10:00,SystemResetWarning,0813.2,4.99,000.00,019.0,018.7,000.0,027.3,020.2,9.3,0000.0,0000.79,0003.74,0000.50
2024-01-11 00:11:00,SystemResetWarning,0813.2,5.01,000.00,019.0,018.4,000.0,027.3,020.0,9.3,0000.0,0000.79,0003.67,0000.50
2024-01-11 00:12:00,SystemResetWarning,0813.2,5.00,000.00,018.9,018.2,000.0,027.3,020.0,9.4,0000.0,0000.77,0003.60,0000.50
2024-01-11 00:13:00,SystemResetWarning,0813.1,5.00,000.00,018.9,018.0,000.0,027.3,020.0,9.3,0000.0,0000.74,0003.54,0000.51
2024-01-11 00:14:00,SystemResetWarning,0813.1,5.00,000.00,018.8,017.8,000.0,027.3,020.0,9.3,0000.0,0000.73,0003.45,0000.52
2024-01-11 00:15:00,SystemResetWarning,0813.2,5.00,000.00,018.8,017.6,000.0,027.3,020.0,9.3,0000.0,0000.72,0002.97,0000.52
2024-01-11 00:16:00,SystemResetWarning,0813.2,5.00,000.00,018.8,017.4,000.0,027.3,020.0,9.3,0000.0,0000.71,0002.79,0000.53
2024-01-11 00:17:00,SystemResetWarning,0813.2,5.00,000.00,018.8,017.3,000.0,027.3,020.0,9.4,0000.0,0000.76,0002.91,0000.55
2024-01-11 00:18:00,SystemResetWarning,0813.1,5.00,000.00,018.8,017.2,000.0,027.3,020.0,9.4,0000.0,0000.77,0001.76,0000.56
2024-01-11 00:19:00,SystemResetWarning,0813.1,5.00,000.00,018.7,017.1,000.0,027.3,020.0,9.4,0000.0,0000.77,0001.30,0000.57
2024-01-11 00:20:00,SystemResetWarning,0813.1,5.01,000.00,018.7,017.3,000.0,027.3,020.2,9.4,0000.0,0000.74,0001.21,0000.57
2024-01-11 00:21:00,SystemResetWarning,0813.2,5.02,000.00,018.9,018.2,000.0,027.2,020.6,9.4,0000.0,0000.76,0001.22,0000.59
2024-01-11 00:22:00,SystemResetWarning,0813.2,4.98,000.00,019.0,018.8,000.0,027.3,020.7,9.4,0000.0,0000.74,0001.18,0000.59
2024-01-11 00:23:00,SystemResetWarning,0813.1,4.99,000.00,019.0,018.7,000.0,027.2,020.4,9.4,0000.0,0000.73,0001.14,0000.60
2024-01-11 00:24:00,SystemResetWarning,0813.0,5.01,000.00,019.0,018.6,000.0,027.2,020.1,9.5,0000.0,0000.75,0001.16,0000.61
2024-01-11 00:25:00,SystemResetWarning,0813.0,5.00,000.00,018.9,018.4,000.0,027.2,020.0,9.6,0000.0,0000.76,0001.19,0000.61
2024-01-11 00:26:00,SystemResetWarning,0813.0,5.00,000.00,018.9,018.1,000.0,027.2,020.0,9.6,0000.0,0000.79,0001.25,0000.63
2024-01-11 00:27:00,SystemResetWarning,0813.0,5.00,000.00,018.8,017.9,000.0,027.3,020.0,9.7,0000.0,0000.79,0001.17,0000.64
2024-01-11 00:28:00,SystemResetWarning,0813.0,5.00,000.00,018.8,017.7,000.0,027.3,020.0,9.7,0000.0,0000.78,0001.12,0000.65
2024-01-11 00:29:00,SystemResetWarning,0813.0,5.00,000.00,018.8,017.6,000.0,027.3,020.0,9.7,0000.0,0000.79,0001.14,0000.66
2024-01-11 00:30:00,SystemResetWarning,0813.1,5.00,000.00,018.8,017.4,000.0,027.3,020.0,9.8,0000.0,0000.81,0001.17,0000.66
2024-01-11 00:31:00,SystemResetWarning,0813.0,5.00,000.00,018.8,017.2,000.0,027.3,020.0,9.8,0000.0,0000.84,0001.24,0000.68
2024-01-11 00:32:00,SystemResetWarning,0813.0,5.00,000.00,018.8,017.2,000.0,027.3,020.0,9.8,0000.0,0000.86,0001.27,0000.69
2024-01-11 00:33:00,SystemResetWarning,0813.1,5.00,000.00,018.7,017.1,000.0,027.3,020.0,9.9,0000.0,0000.91,0001.40,0000.71
2024-01-11 00:34:00,SystemResetWarning,0813.1,5.00,000.00,018.8,017.4,000.0,027.3,020.2,9.9,0000.0,0000.97,0001.56,0000.73
2024-01-11 00:35:00,SystemResetWarning,0813.0,5.01,000.00,018.9,018.3,000.0,027.2,020.7,9.8,0000.0,0001.03,0001.79,0000.75
2024-01-11 00:36:00,SystemResetWarning,0813.1,4.99,000.00,019.0,018.8,000.0,027.2,020.7,9.8,0000.0,0001.04,0001.80,0000.76
2024-01-11 00:37:00,SystemResetWarning,0813.1,4.98,000.00,019.0,018.7,000.0,027.2,020.3,9.7,0000.0,0001.05,0001.80,0000.77
2024-01-11 00:38:00,SystemResetWarning,0813.0,5.00,000.00,018.9,018.5,000.0,027.2,020.1,9.8,0000.0,0001.08,0001.92,0000.78
2024-01-11 00:39:00,SystemResetWarning,0813.1,5.00,000.00,018.9,018.2,000.0,027.2,020.0,9.9,0000.0,0001.11,0001.97,0000.81
2024-01-11 00:40:00,SystemResetWarning,0813.1,4.99,000.00,018.8,017.9,000.0,027.3,020.0,9.9,0000.0,0001.13,0001.97,0000.83
2024-01-11 00:41:00,SystemResetWarning,0813.2,5.00,000.00,018.8,017.7,000.0,027.3,020.0,9.9,0000.0,0001.16,0002.01,0000.86
2024-01-11 00:42:00,SystemResetWarning,0813.2,5.02,000.00,018.8,017.6,000.0,027.3,020.0,9.9,0000.0,0001.17,0002.02,0000.89
2024-01-11 00:43:00,SystemResetWarning,0813.2,5.00,000.00,018.8,017.5,000.0,027.3,020.0,9.9,0000.0,0001.19,0002.01,0000.91
2024-01-11 00:44:00,SystemResetWarning,0813.2,4.99,000.00,018.8,017.3,000.0,027.3,020.0,9.9,0000.0,0001.20,0002.00,0000.94
2024-01-11 00:45:00,SystemResetWarning,0813.3,4.99,000.00,018.7,017.3,000.0,027.3,020.0,9.9,0000.0,0001.22,0003.15,0000.98
2024-01-11 00:46:00,SystemResetWarning,0813.3,5.00,000.00,018.7,017.2,000.0,027.3,020.0,9.9,0000.0,0001.22,0003.55,0000.99
2024-01-11 00:47:00,SystemResetWarning,0813.3,5.00,000.00,018.7,017.1,000.0,027.3,020.0,10.0,0000.0,0001.23,0003.52,0001.03
2024-01-11 00:48:00,SystemResetWarning,0813.3,5.01,000.00,018.8,017.5,000.0,027.3,020.3,10.0,0000.0,0001.26,0003.54,0001.05
2024-01-11 00:49:00,SystemResetWarning,0813.3,5.01,000.00,018.9,018.4,000.0,027.2,020.7,9.9,0000.0,0001.25,0003.44,0001.08
2024-01-11 00:50:00,SystemResetWarning,0813.3,4.98,000.00,019.0,018.8,000.0,027.2,020.6,9.9,0000.0,0001.26,0003.43,0001.09
2024-01-11 00:51:00,SystemResetWarning,0813.3,5.00,000.00,019.0,018.7,000.0,027.2,020.2,9.9,0000.0,0001.26,0003.43,0001.09
2024-01-11 00:52:00,SystemResetWarning,0813.3,5.00,000.00,018.9,018.5,000.0,027.2,020.1,10.0,0000.0,0001.29,0003.51,0001.10
2024-01-11 00:53:00,SystemResetWarning,0813.3,5.00,000.00,018.9,018.3,000.0,027.2,020.0,10.0,0000.0,0001.31,0003.53,0001.11
2024-01-11 00:54:00,SystemResetWarning,0813.3,4.99,000.00,018.8,018.0,000.0,027.3,020.0,10.1,0000.0,0001.29,0003.50,0001.10
2024-01-11 00:55:00,SystemResetWarning,0813.3,5.01,000.00,018.8,017.8,000.0,027.3,020.0,10.1,0000.0,0001.30,0003.54,0001.09
2024-01-11 00:56:00,SystemResetWarning,0813.3,5.01,000.00,018.8,017.6,000.0,027.3,020.0,10.2,0000.0,0001.28,0003.07,0001.08
2024-01-11 00:57:00,SystemResetWarning,0813.3,5.00,000.00,018.8,017.4,000.0,027.3,020.0,10.2,0000.0,0001.29,0001.85,0001.07
2024-01-11 00:58:00,SystemResetWarning,0813.3,5.00,000.00,018.8,017.3,000.0,027.3,020.0,10.2,0000.0,0001.27,0001.83,0001.06
2024-01-11 00:59:00,SystemResetWarning,0813.4,5.00,000.00,018.8,017.2,000.0,027.3,020.0,10.3,0000.0,0001.27,0001.81,0001.06
